Regional Weather Roundup
Issued by NWS

Home | Current Version | Previous Version | Text Only | Print | Product List | Glossary On
Versions: 1 2 3 4 5 6 7 8 9 10 11 12 13 14 15 16 17 18 19 20 21 22 23 24 25 26 27
000
ASUS46 KSEW 170610
RWRWA

WASHINGTON REGIONAL WEATHER ROUNDUP
NATIONAL WEATHER SERVICE SEATTLE WA
1100 PM PDT MON OCT 16 2017

NOTE:"FAIR" INDICATES FEW OR NO CLOUDS BELOW 12,000 FEET WITH NO
SIGNIFICANT WEATHER AND/OR OBSTRUCTIONS TO VISIBILITY.

WAZ507-509-555>559-170700-
SEATTLE, TACOMA, EVERETT, AND VICINITY

CITY           SKY/WX    TMP DP  RH WIND       PRES   REMARKS
EVERETT        CLOUDY    54  47  77 SE22G31   30.04F
6HR MIN TEMP:  53; 6HR MAX TEMP:  58;

BOEING FIELD   PTCLDY    54  47  77 SE8       30.07F
6HR MIN TEMP:  54; 6HR MAX TEMP:  61;

RENTON         PTCLDY    55  48  77 SE5       30.07F
6HR MIN TEMP:  55; 6HR MAX TEMP:  61;

SEATAC AIRPORT MOCLDY    52  46  80 S6        30.08F
6HR MIN TEMP:  52; 6HR MAX TEMP:  60;

JBLM-MCCHORD   CLEAR     50  50  99 S6        30.09F
6HR MIN TEMP:  47; 6HR MAX TEMP:  63;

PUYALLUP       FAIR      50  48  93 CALM      30.09F
BREMERTON      MOCLDY    52  47  83 S16       30.05F
6HR MIN TEMP:  52; 6HR MAX TEMP:  57;

JBLM-FT LEWIS  CLEAR     47  47  99 S6        30.08F
6HR MIN TEMP:  47; 6HR MAX TEMP:  62;

TACOMA NARROWS PTCLDY    51  48  89 S5        30.09S
6HR MIN TEMP:  51; 6HR MAX TEMP:  58;

$$

WAZ001-503-506-510-514-515-170700-
NORTH INTERIOR

CITY           SKY/WX    TMP DP  RH WIND       PRES   REMARKS
BELLINGHAM     LGT RAIN  54  51  90 S9        30.00F
6HR MIN TEMP:  52; 6HR MAX TEMP:  56; 6HR PCP:  0.08;

FRIDAY HARBOR  LGT RAIN  51  51 100 E8        30.00F
6HR MIN TEMP:  50; 6HR MAX TEMP:  52; 6HR PCP: TRACE;

EASTSOUND      CLOUDY    54  52  94 S10       29.98F
PORT ANGELES   CLOUDY    50  48  93 E5        29.99F
6HR MIN TEMP:  50; 6HR MAX TEMP:  54; 6HR PCP: TRACE;

EDIZ HOOK      CLOUDY    49  47  93 CALM      30.00F
6HR MIN TEMP:  49; 6HR MAX TEMP:  51;

PORT TOWNSEND  MOCLDY    52  48  87 CALM      30.01F
NAS WHIDBEY    CLOUDY    57  47  69 SE12      30.05F
6HR MIN TEMP:  55; 6HR MAX TEMP:  58; 6HR PCP: TRACE;

ARLINGTON      CLOUDY    57  48  72 S10       30.05F
6HR MIN TEMP:  56; 6HR MAX TEMP:  58;

BURLINGTON     CLOUDY    57  50  77 S7G14     30.02F
$$

WAZ020-022-039-040-504-511-512-170700-
SOUTHWEST INTERIOR

CITY           SKY/WX    TMP DP  RH WIND       PRES   REMARKS
SHELTON        CLOUDY    54  48  80 SW6       30.06F
6HR MIN TEMP:  53; 6HR MAX TEMP:  58;

OLYMPIA        CLEAR     47  46  97 S5        30.09F
6HR MIN TEMP:  47; 6HR MAX TEMP:  60;

CHEHALIS       FAIR      45  45 100 CALM      30.10F
KELSO          CLEAR     47  45  93 CALM      30.12F
6HR MIN TEMP:  46; 6HR MAX TEMP:  62;

VANCOUVER      CLEAR     46  45  96 CALM      30.11F
6HR MIN TEMP:  46; 6HR MAX TEMP:  65;

SCAPPOOSE, OR  CLEAR     42  42 100 CALM      30.11F FOG
6HR MIN TEMP:  42; 6HR MAX TEMP:  65;

PORTLAND, OR   PTCLDY    50  49  96 E3        30.12F
6HR MIN TEMP:  50; 6HR MAX TEMP:  67;

$$

WAZ021-516-517-170700-
WASHINGTON COAST

CITY           SKY/WX    TMP DP  RH WIND       PRES   REMARKS
FORKS          CLOUDY    53  52  96 VRB7      30.02F FOG
6HR MIN TEMP:  52; 6HR MAX TEMP:  53; 6HR PCP:  0.20;

HOQUIAM        CLOUDY    54  50  86 SE8       30.09F
6HR MIN TEMP:  54; 6HR MAX TEMP:  57;

ASTORIA, OR    PTCLDY    45  43  93 SE3       30.10F
6HR MIN TEMP:  45; 6HR MAX TEMP:  58;

$$

WAZ019-023-024-040-567>569-170700-
CASCADE MOUNTAINS AND COLUMBIA GORGE

CITY           SKY/WX    TMP DP  RH WIND       PRES   REMARKS
STAMPEDE PASS  CLEAR     51  27  39 VRB5      30.10F
6HR MIN TEMP:  44; 6HR MAX TEMP:  53;

TROUTDALE, OR  CLEAR     46  44  93 E5        30.11F
6HR MIN TEMP:  46; 6HR MAX TEMP:  67;

HOOD RIVER, OR CLEAR     43  39  87 CALM      30.11F
THE DALLES, OR CLEAR     48  42  80 SE5       30.08F
6HR MIN TEMP:  48; 6HR MAX TEMP:  69;

$$

WAZ026-027-041>044-520-521-170700-
EAST SLOPES

CITY           SKY/WX    TMP DP  RH WIND       PRES   REMARKS
OMAK           PTCLDY    51  36  56 S3        30.01F
6HR MIN TEMP:  51; 6HR MAX TEMP:  65;

WENATCHEE      CLEAR     47  38  71 E6        30.04S
6HR MIN TEMP:  46; 6HR MAX TEMP:  60;

ELLENSBURG     CLEAR     43  33  68 CALM      30.05F
6HR MIN TEMP:  40; 6HR MAX TEMP:  66;

YAKIMA         PTCLDY    38  31  76 W7        30.07S
6HR MIN TEMP:  38; 6HR MAX TEMP:  67; 6HR PCP: TRACE;

SUNNYSIDE ARPT CLEAR     35  32  90 CALM      30.07S
6HR MIN TEMP:  35; 6HR MAX TEMP:  64;

YAKIMA TC      FAIR      42  32  66 SE3       30.05S
6HR MIN TEMP:  40; 6HR MAX TEMP:  64;

$$

WAZ028-034-035-170700-
COLUMBIA BASIN

CITY           SKY/WX    TMP DP  RH WIND       PRES   REMARKS
EPHRATA        CLEAR     44  31  60 N7        30.04S
6HR MIN TEMP:  43; 6HR MAX TEMP:  62; 6HR PCP: TRACE;

MOSES LAKE     CLEAR     45  36  70 VRB3      30.05S
6HR MIN TEMP:  43; 6HR MAX TEMP:  60;

PASCO          CLEAR     42  39  89 N7        30.06F
6HR MIN TEMP:  42; 6HR MAX TEMP:  71;

RICHLAND ARPT  CLEAR     45  40  82 CALM      30.06S
6HR MIN TEMP:  44; 6HR MAX TEMP:  70;

HERMISTON, OR  CLEAR     50  35  56 S8        30.06F
6HR MIN TEMP:  50; 6HR MAX TEMP:  69;

$$

WAZ036>038-170700-
NORTHEAST WASHINGTON

CITY           SKY/WX    TMP DP  RH WIND       PRES   REMARKS
SPOKANE GEIGER CLEAR     48  33  56 S8        30.09F
6HR MIN TEMP:  48; 6HR MAX TEMP:  62;

SPOKANE FELTS  CLEAR     46  37  71 NE5       30.09F
6HR MIN TEMP:  46; 6HR MAX TEMP:  65;

FAIRCHILD AFB  CLEAR     47  31  54 SE5       30.08F
6HR MIN TEMP:  46; 6HR MAX TEMP:  61;

COEURDALENE,ID PTCLDY    42  36  79 SE5       30.11S
6HR MIN TEMP:  40; 6HR MAX TEMP:  62;

DEER PARK      CLEAR     37  31  78 CALM      30.09F
6HR MIN TEMP:  36; 6HR MAX TEMP:  62;

$$

WAZ029>033-170700-
SOUTHEAST WASHINGTON

CITY           SKY/WX    TMP DP  RH WIND       PRES   REMARKS
PULLMAN        CLEAR     51  31  46 VRB3      30.14S
6HR MIN TEMP:  48; 6HR MAX TEMP:  63;

LEWISTON, ID   CLEAR     51  36  56 SE3       30.11S
6HR MIN TEMP:  50; 6HR MAX TEMP:  69;

WALLA WALLA    CLEAR     61  34  36 SE8       30.08S
6HR MIN TEMP:  54; 6HR MAX TEMP:  72;

PENDLETON, OR  CLEAR     50  33  52 SE13      30.10S
6HR MIN TEMP:  48; 6HR MAX TEMP:  71;

$$




USA.gov is the U.S. government's official web portal to all federal, state and local government web resources and services.